ARIANE 5 DEB, 43382

Orbit data source: Space-Track

ARIANE 5 DEB, 43382 is space debris in HEO originally from a launch on Thu, 12 Jun 2008 UTC launched from the French Guiana (FRGUI). Debris objects in space refer to the collection of defunct objects orbiting the Earth. Examples of debris include non-operational satellites, rocket bodies, and fragments generated from explosions, collisions, or faulty payload assembly.

Loading next visibility...
Identifier
43382, 2008-030E
Orbit
HEO
Country
Flag of FRFR
Related business
Manufacturer
Thales Alenia
Mission
Spacecraft
Bus & Motor
Unknown
Mass
Unknown
Launch date (UTC)
2008-06-12 (17 years ago)
Launch vehicle
Unknown
Launch site
French Guiana (FRGUI)
Object type
Payload
Rocket body
Debris
Shape & HBR
Unknown shape, 1.8 m
Radar Cross Section
Large (>1 m²)

Expand to show TLE details & history
Last TLE update: 10 hours ago

TLE from 10 hours ago
0 ARIANE 5 DEB
1 43382U 08030E   25289.04418259  .00001691  00000-0  16220-2 0  9990
2 43382   1.7999 107.5832 7042146  49.5215 353.4487  2.55174877107146
Epoch: 2025-10-16T01:03Z
TLE epoch observation values (Epoch: 2025-10-16T01:03:37.375Z)
Latitude
0.00003°
Longitude
67.43815°
Altitude
1,417.422 km
Speed
9.199 km/s
True Right ascension
07h 12m 36s
True Declination
0° 00' 00"
Sunlit
Object was in daylight at epoch
Visualization orbit readout
Latitude
Unknown
Longitude
Unknown
Altitude
Unknown
Speed
Unknown
Apparent Right ascension
Unknown
Apparent Declination
Unknown
Sunlit
N/A
Visualization observer readout
Local Sidereal Time
05:42:31
Azimuth
Unknown
Elevation
Unknown
Doppler factor
Unknown
Orbital elements
Apogee altitude
32,182.015 km
Perigee altitude
314.406 km
Semi-major axis
22,626.348 km
Eccentricity
0.70421
Inclination
1.7999°
RAAN
107.5832°
Arg. of periapsis
49.5215°
True anomaly
311.96753°
Mean anomaly
353.4487°
Eccentric anomaly
338.96813°
Mean motion
0.63771 °/min
Orbital period
564.52 mins
BSTAR
0.001622
Loading maneuver chart data...
Computing Atmospheric mass density...
Loading historical data...
Loading historical data...
Loading historical data...
Loading historical data...
Loading historical data...
Loading historical data...
Loading historical data...

Documentation

Showing up to 5 results
|